Powrót do katalogu

FENGYUN 1C DEB

AktywnyPO
NORAD 31554·DEBRIS·🇨🇳 China

Wystrzelony May 10, 1999 z Taiyuan Satellite Launch Center

Loading…

Następne Przeloty (najbliższe 24 godziny)

TLE

ŚwieżeSource: Space-Track

Epoka: Sep 14, 2026, 21:25 UTC

1 31554U 99025BYV 26257.89288156  .00009634  00000-0  20982-2 0  9997
2 31554  98.9173  55.1570 0033955 262.1052  97.6290 14.57812693688734

Śledź FENGYUN 1C DEB w czasie rzeczywistym z AllMySat

Download on the App Store